This demonstration page uses our WeatherBlox Daily Observations layout. Learn more.

Left ArrowRight Arrow

Hourly Observations for May 8, 2020

Temp ( °F °C ) Dew Point ( °F °C ) Humidity (%) Winds ( mph kmh ) Pressure ( in mb ) Visibility ( mi km ) Precip ( " mm )
12:02 am 00:02 Cloudy with Rain 47 8.3 44 6.7 90 90 NNE 18 30 30.11 1020 4 6.43736 0.05 1.27
12:54 am 00:54 Cloudy with Rain 46 7.8 43 6.1 89 89 NE 18 30 30.09 1019 5 8.0467 0.2 5.08
1:54 am 01:54 Cloudy with Light Rain 46 7.8 43 6.1 89 89 NNE 18 30 30.09 1019 9 14.48406 0.04 1.016
2:54 am 02:54 Cloudy 47 8.3 43 6.1 86 86 N 15 24 30.13 1020 10 16.0934 0.01 0.254
3:12 am 03:12 Cloudy 47 8.3 43 6.1 86 86 N 18 30 30.16 1021 10 16.0934 0 0
3:21 am 03:21 Cloudy 47 8.3 43 6.1 86 86 NNW 20 31 30.16 1021 10 16.0934 0 0
3:54 am 03:54 Mostly Clear 46 7.8 40 4.4 79 79 N 22 35 30.16 1021 10 16.0934 0 0
4:54 am 04:54 Clear 42 5.6 35 1.7 76 76 N 15 24 30.19 1022 10 16.0934 0 0
5:54 am 05:54 Clear 39 3.9 30 -1.1 70 70 N 16 26 30.23 1024 10 16.0934 0 0
6:54 am 06:54 Sunny 38 3.3 28 -2.2 68 68 N 14 22 30.27 1025 10 16.0934 0 0
7:54 am 07:54 Sunny 41 5 29 -1.7 62 62 N 18 30 30.3 1026 10 16.0934 0 0
8:54 am 08:54 Sunny 44 6.7 29 -1.7 55 55 N 16 26 30.31 1026 10 16.0934 0 0
9:54 am 09:54 Sunny 48 8.9 30 -1.1 50 50 N 14 22 30.32 1027 10 16.0934 0 0
10:54 am 10:54 Sunny 50 10 30 -1.1 46 46 N 15 24 30.34 1027 10 16.0934 0 0
11:54 am 11:54 Sunny 52 11.1 28 -2.2 40 40 NNW 14 22 30.34 1027 10 16.0934 0 0
12:54 pm 12:54 Sunny 54 12.2 27 -2.8 35 35 N 10 17 30.33 1027 10 16.0934 0 0
1:54 pm 13:54 Sunny 56 13.3 24 -4.4 29 29 N 15 24 30.32 1027 10 16.0934 0 0
2:54 pm 14:54 Sunny 57 13.9 26 -3.3 30 30 NNW 12 19 30.3 1026 10 16.0934 0 0
3:54 pm 15:54 Sunny 58 14.4 27 -2.8 31 31 N 12 19 30.28 1025 10 16.0934 0 0
4:54 pm 16:54 Sunny 59 15 26 -3.3 28 28 N 9 15 30.27 1025 10 16.0934 0 0
5:54 pm 17:54 Sunny 59 15 24 -4.4 26 26 NNW 12 19 30.26 1025 10 16.0934 0 0
6:54 pm 18:54 Sunny 58 14.4 24 -4.4 27 27 N 13 20 30.25 1024 10 16.0934 0 0
7:54 pm 19:54 Sunny 55 12.8 25 -3.9 31 31 N 9 15 30.24 1024 10 16.0934 0 0
8:54 pm 20:54 Clear 50 10 27 -2.8 41 41 N 5 7 30.24 1024 10 16.0934 0 0
9:54 pm 21:54 Clear 46 7.8 28 -2.2 50 50 NNW 5 7 30.27 1025 10 16.0934 0 0
10:54 pm 22:54 Clear 41 5 31 -0.6 67 67 NW 3 6 30.28 1025 10 16.0934 0 0
11:54 pm 23:54 Clear 37 2.8 32 0 82 82 N 3 6 30.28 1025 10 16.0934 0 0

Powered by AerisWeather